Find Starlink 3638

NORAD ID: 51786 Int'l Des: 2022-017 Owner: SPXS Country: US Constellation: starlink operational
LEOCIRCULAR

リアルタイム位置

3D地球を読み込み中...

Starlink 3638について

説明を読み込み中...

次回通過

Passes for default location (London). Set your location on the main map for personalized predictions.

高度履歴

Loading altitude history...

軌道要素

1 51786U 22017U 26127.27919476 .00000356 00000-0 40442-4 0 9994
2 51786 53.2161 86.1011 0001391 73.4227 286.6918 15.08847403231122
Epoch: May 7, 2026 • Age: 10 hours

現在のステータス

高度 539.5 km
速度 7.59 km/s
衛星直下点 7.97°N, 19.48°W
打ち上げ日 Feb 25, 2022
運用期間 4.1 years
タイプ internet

技術仕様

分類 Payload
質量 297.00 kg
乾燥質量 275.00 kg
総質量 297.00 kg
長さ 0.20 m
直径 2.80 m
スパン 9.00 m
形状 Box + pan
製造者 SPXS
バスタイプ Starlink
フェーズステータス In Orbit
所有者/国 SPXS/US

Most Searched